Torna al catalogo

CZ-4C DEB

AttivoPO
NORAD 43410·DEBRIS·🇨🇳 China

Lanciato Sep 23, 2013 da Taiyuan Satellite Launch Center

Loading…

Prossimi Passaggi (prossime 24 ore)

TLE

AggiornatoSource: Space-Track

Epoca: Sep 14, 2026, 05:29 UTC

1 43410U 13052E   26257.22861138  .00000349  00000-0  31852-3 0  9994
2 43410  98.8319  34.6383 0242823 167.4805 193.2528 13.76540754642780

Traccia CZ-4C DEB in tempo reale con AllMySat

Download on the App Store